Salamanca, Spain

2:30 AM CET on February 23, 2018 (GMT +0100)
Matacan

Weather History for LESA - February, 2012

Change the Weather History Date:

Wednesday, February 29, 2012

  Actual Average Record
Temperature  
Mean Temperature 50 °F -  
Max Temperature 69 °F - - ()
Min Temperature 30 °F - - ()
Degree Days  
Heating Degree Days 16    
Moisture  
Dew Point 32 °F    
Average Humidity 60    
Maximum Humidity 93    
Minimum Humidity 18    
Precipitation  
Precipitation 0.00 in 0.04 in - ()
Sea Level Pressure  
Sea Level Pressure 30.20 in    
Wind  
Wind Speed 2 mph ()    
Max Wind Speed 17 mph    
Max Gust Speed -    
Visibility 6.9 miles    
Events      
T = Trace of Precipitation, MM = Missing Value Source: Averaged Metar Reports

Daily Weather History Graph

Daily Weather History Graph

Search for Another Location

Airport or City:

Trip Planner

Search our weather history database for the weather conditions in past years. The results will help you decide how hot, cold, wet, or windy it might be!

Date:

Astronomy

Feb. 29, 2012 Rise Set
Actual Time 7:57 AM CET 7:12 PM CET
Civil Twilight 7:29 AM CET 7:39 PM CET
Nautical Twilight 6:57 AM CET 8:11 PM CET
Astronomical Twilight 6:26 AM CET 8:43 PM CET
Moon 11:33 AM CET (2/29) 1:50 AM CET (2/29)
Length of Visible Light 12h 10m
Length of Day
11h 15m
Waxing Crescent, 44% of the Moon is Illuminated
Feb 29
Waxing Crescent
Mar 1
First Quarter
Mar 8
Full
Mar 15
Last Quarter
Mar 22
New

Hourly Weather History & Observations

Time (CET) Temp. Windchill Dew Point Humidity Pressure Visibility Wind Dir Wind Speed Gust Speed Precip Events Conditions
12:00 AM 39.2 °F - 32.0 °F 75% 30.21 in - Calm Calm - N/A   Clear
1:00 AM 36 °F - 29 °F 69%  in 9 mi SE 2.3 mph - -   Clear
1:00 AM 35.6 °F - 30.2 °F 81% 30.21 in - Variable 1.2 mph - N/A   Clear
2:00 AM 33.8 °F - 30.2 °F 87% 30.21 in - Variable 2.3 mph - N/A   Clear
3:00 AM 33.8 °F - 28.4 °F 81% 30.21 in - Calm Calm - N/A   Clear
4:00 AM 32.0 °F - 28.4 °F 87% 30.21 in - Calm Calm - N/A   Clear
5:00 AM 32.0 °F - 30.2 °F 93% 30.21 in - Calm Calm - N/A   Clear
6:00 AM 30.2 °F - 28.4 °F 93% 30.21 in - Variable 2.3 mph - N/A   Clear
7:00 AM 30 °F - 28 °F 86%  in 9 mi Calm Calm - -   Scattered Clouds
7:00 AM 30.2 °F - 28.4 °F 93% 30.21 in - Calm Calm - N/A   Clear
7:30 AM 30.2 °F 26.7 °F 28.4 °F 93% 30.21 in 6.2 mi ESE 3.5 mph - N/A   Partly Cloudy
8:00 AM 30.2 °F - 26.6 °F 86% 30.21 in 6.2 mi Calm Calm - N/A   Partly Cloudy
8:30 AM 30.2 °F - 26.6 °F 86% 30.21 in 6.2 mi Calm Calm - N/A   Partly Cloudy
9:00 AM 33.8 °F - 30.2 °F 87% 30.24 in - Calm Calm - N/A   Clear
9:30 AM 37.4 °F - 33.8 °F 87% 30.24 in - Calm Calm - N/A   Clear
10:00 AM 42.8 °F - 35.6 °F 76% 30.24 in - Calm Calm - N/A   Clear
10:30 AM 46.4 °F - 35.6 °F 66% 30.24 in - Variable 1.2 mph - N/A   Clear
11:00 AM 51.8 °F - 35.6 °F 54% 30.24 in - Calm Calm - N/A   Clear
11:30 AM 53.6 °F - 37.4 °F 54% 30.24 in 6.2 mi Calm Calm - N/A   Partly Cloudy
12:00 PM 57.2 °F - 35.6 °F 44% 30.24 in 6.2 mi Calm Calm - N/A   Partly Cloudy
12:30 PM 59.0 °F - 35.6 °F 42% 30.24 in - Calm Calm - N/A   Clear
1:00 PM 64 °F - 31 °F 18%  in 12 mi NW 2.3 mph - -   Scattered Clouds
1:00 PM 62.6 °F - 32.0 °F 32% 30.21 in - Variable 1.2 mph - N/A   Clear
1:30 PM 62.6 °F - 28.4 °F 27% 30.21 in - Variable 2.3 mph - N/A   Clear
2:00 PM 64.4 °F - 26.6 °F 24% 30.18 in 6.2 mi Variable 1.2 mph - N/A   Partly Cloudy
2:30 PM 64.4 °F - 28.4 °F 26% 30.18 in 6.2 mi Variable 3.5 mph - N/A   Partly Cloudy
3:00 PM 66.2 °F - 28.4 °F 24% 30.15 in 6.2 mi Variable 1.2 mph - N/A   Partly Cloudy
3:30 PM 66.2 °F - 28.4 °F 24% 30.15 in 6.2 mi West 3.5 mph - N/A   Partly Cloudy
4:00 PM 64.4 °F - 28.4 °F 26% 30.15 in 6.2 mi Variable 1.2 mph - N/A   Partly Cloudy
4:30 PM 64.4 °F - 28.4 °F 26% 30.15 in 6.2 mi Variable 2.3 mph - N/A   Scattered Clouds
5:00 PM 59.0 °F - 37.4 °F 45% 30.15 in 6.2 mi WSW 17.3 mph - N/A   Scattered Clouds
5:30 PM 57.2 °F - 39.2 °F 51% 30.15 in 6.2 mi WSW 13.8 mph - N/A   Scattered Clouds
6:00 PM 57.2 °F - 39.2 °F 51% 30.15 in 6.2 mi WSW 13.8 mph - N/A   Partly Cloudy
6:30 PM 55.4 °F - 37.4 °F 51% 30.15 in 6.2 mi West 11.5 mph - N/A   Partly Cloudy
7:00 PM 55 °F - 38 °F 40%  in 12 mi West 4.6 mph - -   Scattered Clouds
7:00 PM 53.6 °F - 37.4 °F 54% 30.15 in 6.2 mi West 5.8 mph - N/A   Partly Cloudy
8:00 PM 51.8 °F - 37.4 °F 58% 30.18 in 6.2 mi South 6.9 mph - N/A   Partly Cloudy
9:00 PM 51.8 °F - 39.2 °F 62% 30.18 in 6.2 mi SSE 6.9 mph - N/A   Partly Cloudy
10:00 PM 48.2 °F - 39.2 °F 71% 30.18 in 6.2 mi Variable 1.2 mph - N/A   Partly Cloudy
11:00 PM 46.4 °F - 37.4 °F 71% 30.18 in - Variable 2.3 mph - N/A   Clear